Location: Homewood
(41.1836°S, 175.9581°E)
Time: 16:28:40
(UTC+00:00)

Nadezhda 2 Rocket - Visible Passes

Search period start: 16 July 2024 00:00
Search period end: 26 July 2024 00:00
Orbit: 946 x 1011 km, 83.0° (Epoch: 16 July)

Date Brightness Start Highest point End Pass type
(mag) Time Alt. Az. Time Alt. Az. Time Alt. Az.
16 Jul 5.3 06:34:48 10° SSW 06:41:08 57° W 06:47:24 10° NNW visible
16 Jul 5.6 18:19:38 10° NNE 18:25:34 49° E 18:31:39 10° SSE visible
17 Jul 6.4 07:01:45 10° SSW 07:07:19 31° W 07:12:51 10° NW visible
17 Jul 7.5 17:05:03 10° E 17:07:29 12° ESE 17:09:56 10° SE visible
17 Jul 4.6 18:45:38 10° N 18:51:52 89° E 18:58:18 10° S visible
18 Jul 4.6 05:42:07 10° S 05:48:40 75° E 05:55:06 10° NNE visible
18 Jul 7.3 07:29:23 10° SW 07:33:18 17° W 07:37:13 10° WNW visible
18 Jul 6.8 17:28:33 10° NE 17:33:23 24° E 17:38:19 10° SSE visible
19 Jul 5.2 06:08:38 10° SSW 06:15:03 62° W 06:21:23 10° N visible
19 Jul 5.7 17:53:37 10° NNE 17:59:28 44° E 18:05:29 10° SSE visible
20 Jul 6.3 06:35:30 10° SSW 06:41:15 34° W 06:46:56 10° NNW visible
20 Jul 7.6 16:39:51 10° E 16:41:28 11° ESE 16:43:05 10° ESE visible
20 Jul 4.7 18:19:30 10° N 18:25:45 81° E 18:32:11 10° S visible
21 Jul 7.2 07:02:59 10° SW 07:07:17 19° W 07:11:32 10° WNW visible
21 Jul 6.9 17:02:43 10° NE 17:07:20 22° E 17:12:01 10° SE visible
21 Jul 4.6 18:46:05 10° NNW 18:52:13 57° W 18:58:32 10° S visible
22 Jul 5.1 05:42:29 10° SSW 05:48:58 69° W 05:55:20 10° N visible
22 Jul 5.9 17:27:37 10° NNE 17:33:23 40° E 17:39:17 10° SSE visible
23 Jul 6.2 06:09:17 10° SSW 06:15:11 38° W 06:21:01 10° NNW visible
23 Jul 4.8 17:53:23 10° N 17:59:37 74° E 18:06:03 10° S visible
24 Jul 7.2 06:36:38 10° SW 06:41:14 21° W 06:45:48 10° NW visible
24 Jul 6.9 16:36:55 10° NE 16:41:17 20° E 16:45:41 10° SE visible
24 Jul 4.5 18:19:51 10° NNW 18:26:03 63° W 18:32:28 10° S visible
25 Jul 7.7 07:06:04 10° WSW 07:07:05 10° WSW 07:08:06 10° W visible
25 Jul 6.0 17:01:39 10° NNE 17:07:18 36° E 17:13:05 10° SSE visible
25 Jul 5.1 18:47:02 10° NW 18:52:43 35° WSW 18:58:32 10° S visible
